FLOCK 3P 2

Last updated on Wed May 17 2017 00:18:07 GMT+0000 (Coordinated Universal Time)

1 41966U 17008U 17136.55696050 .00002827 00000-0 12646-3 0 9997 2 41966 97.4977 197.9501 0006983 308.5574 51.5036 15.22114973 13561
UTC large
Height (km)
Speed (km/s)
/
Latitude / Longitude
Inclination (degrees)
Orbital Period (minutes)
Azimuth
Elevation
Range (km)
Doppler Factor

Next 0 passes for location: London (51.5072 / 0.1276)

Sorry there are no passes over London.